User: anonymous   Login
Location: Unspecified
(0.0000°N, 0.0000°E)
Time: 00:08:42
(UTC+00:00)
Language:

STARLINK-36313 - Orbit

View from above orbital plane
View from above orbital plane
View from above satellite
View from above satellite

Ground track
Ground track

The orbit is defined by the following mean orbital elements,

1 68156U          26145.29891874 +.00000000 +00000-0 +67194-3 0 00005
2 68156  97.2847 166.8900 0001110  96.1169 264.0201 15.33452189    06
Epoch (UTC): 25 May 2026 07:10:26
Eccentricity: 0.0001110
inclination: 97.2847°
perigee height: 465 km
apogee height: 466 km
right ascension of ascending node: 166.8900°
argument of perigee: 96.1169°
revolutions per day: 15.33452189
mean anomaly at epoch: 264.0201°

The dashed part of the orbit path shows where the satellite is in the earth's shadow,  

DLR